Weather History for KBIL - October, 2014

Change the Weather History Date:

Wednesday, October 29, 2014

  Actual Average Record
Temperature  
Mean Temperature 55 °F 44 °F  
Max Temperature 65 °F 54 °F 80 °F (1968)
Min Temperature 45 °F 33 °F 1 °F (1991)
Degree Days  
Heating Degree Days 10 21  
Month to date heating degree days 298 477  
Since 1 July heating degree days 539 706  
Cooling Degree Days 0 0  
Month to date cooling degree days 0 0  
Year to date cooling degree days 618 633  
Growing Degree Days 4 (Base 50)    
Moisture  
Dew Point 24 °F    
Average Humidity 38    
Maximum Humidity 53    
Minimum Humidity 22    
Precipitation  
Precipitation T in 0.03 in 0.30 in (2003)
Month to date precipitation 0.16 1.13  
Year to date precipitation 12.62 12.48  
Snow  
Snow 0.00 in 0.20 in 5.40 in (1984)
Month to date snowfall T 3.8  
Since 1 July snowfall T 4.9  
Since 1 September snowfall T 4.9  
Snow Depth 0.00 in    
Sea Level Pressure  
Sea Level Pressure 30.04 in    
Wind  
Wind Speed 18 mph (West)    
Max Wind Speed 32 mph    
Max Gust Speed 42 mph    
Visibility 10 miles    
Events Rain    
T = Trace of Precipitation, MM = Missing Value Source: NWS Daily Summary

Daily Weather History Graph

Daily Weather History Graph

Search for Another Location

Airport or City:

Trip Planner

Search our weather history database for the weather conditions in past years. The results will help you decide how hot, cold, wet, or windy it might be!

Date:

Astronomy

Oct. 29, 2014 Rise Set
Actual Time 7:50 AM MDT 6:04 PM MDT
Civil Twilight 7:19 AM MDT 6:35 PM MDT
Nautical Twilight 6:44 AM MDT 7:10 PM MDT
Astronomical Twilight 6:09 AM MDT 7:45 PM MDT
Moon 1:15 PM MDT (10/29) 11:15 PM MDT (10/29)
Length of Visible Light 11h 16m
Length of Day
10h 14m
Waxing Crescent, 35% of the Moon is Illuminated
Oct 29
Waxing Crescent
Oct 30
First Quarter
Nov 6
Full
Nov 14
Last Quarter
Nov 22
New

Hourly Weather History & Observations

Time (MDT) Temp. Dew Point Humidity Pressure Visibility Wind Dir Wind Speed Gust Speed Precip Events Conditions
12:53 AM 48.9 °F 16.0 °F 27% 29.99 in 10.0 mi WSW 17.3 mph 25.3 mph N/A   Clear
1:53 AM 50.0 °F 17.1 °F 27% 29.97 in 10.0 mi WSW 17.3 mph - N/A   Mostly Cloudy
2:53 AM 48.9 °F 16.0 °F 27% 29.96 in 10.0 mi WSW 16.1 mph - N/A   Scattered Clouds
3:53 AM 50.0 °F 16.0 °F 26% 29.95 in 10.0 mi WSW 13.8 mph - N/A   Mostly Cloudy
4:53 AM 51.1 °F 16.0 °F 25% 29.94 in 10.0 mi WSW 17.3 mph - N/A   Overcast
5:53 AM 50.0 °F 15.1 °F 25% 29.97 in 10.0 mi WSW 19.6 mph - N/A   Mostly Cloudy
6:53 AM 51.1 °F 19.9 °F 29% 29.98 in 10.0 mi WSW 18.4 mph - N/A   Overcast
7:53 AM 51.1 °F 24.1 °F 35% 30.00 in 10.0 mi West 17.3 mph - 0.00 in Rain Light Rain
8:53 AM 48.9 °F 30.0 °F 48% 30.02 in 10.0 mi WSW 17.3 mph - 0.00 in   Mostly Cloudy
9:53 AM 52.0 °F 28.0 °F 40% 30.01 in 10.0 mi WSW 17.3 mph 25.3 mph N/A   Scattered Clouds
10:53 AM 55.9 °F 23.0 °F 28% 30.01 in 10.0 mi WSW 18.4 mph - N/A   Scattered Clouds
11:53 AM 63.0 °F 28.0 °F 27% 30.00 in 10.0 mi West 20.7 mph 31.1 mph N/A   Partly Cloudy
12:53 PM 63.0 °F 28.9 °F 28% 30.00 in 10.0 mi NW 21.9 mph 39.1 mph N/A   Partly Cloudy
1:53 PM 61.0 °F 26.1 °F 26% 29.99 in 10.0 mi WNW 29.9 mph 36.8 mph N/A   Scattered Clouds
2:53 PM 64.0 °F 24.1 °F 22% 29.99 in 10.0 mi West 29.9 mph 41.4 mph N/A   Scattered Clouds
3:53 PM 64.0 °F 25.0 °F 23% 30.01 in 10.0 mi NW 27.6 mph 39.1 mph N/A   Scattered Clouds
4:53 PM 61.0 °F 26.1 °F 26% 30.03 in 10.0 mi WNW 25.3 mph 34.5 mph N/A   Scattered Clouds
5:53 PM 57.0 °F 27.0 °F 32% 30.07 in 10.0 mi WNW 12.7 mph - N/A   Partly Cloudy
6:53 PM 53.1 °F 27.0 °F 37% 30.10 in 10.0 mi NW 12.7 mph - N/A   Partly Cloudy
7:53 PM 51.1 °F 28.0 °F 41% 30.13 in 10.0 mi WNW 12.7 mph - N/A   Partly Cloudy
8:53 PM 50.0 °F 28.0 °F 43% 30.15 in 10.0 mi WNW 13.8 mph - N/A   Partly Cloudy
9:53 PM 50.0 °F 28.9 °F 44% 30.17 in 10.0 mi NW 13.8 mph - N/A   Mostly Cloudy
10:53 PM 48.0 °F 28.9 °F 48% 30.18 in 10.0 mi NW 12.7 mph - N/A   Partly Cloudy
11:53 PM 46.9 °F 30.0 °F 52% 30.19 in 10.0 mi WNW 11.5 mph - N/A   Mostly Cloudy